Meath Environmental Platform

Observations for Trim Patrick St

Time AQI Temp °C Hum % Pres Pa CO μg/m³ H₂S μg/m³ NO μg/m³ NO₂ μg/m³ O₃ μg/m³ SO₂ μg/m³ PM1 μg/m³ PM2.5 μg/m³ PM10 μg/m³
Saturday 8 August 2026
21:48 3 21.4 60 74,658 0 23.35 1.18 62.17 36.41 8.42 3.71 7.25 7.98
21:46 3 21.4 59 74,587 0 20.24 1.19 50.25 30.41 8.32 4.57 8.79 9.67
21:45 3 21.5 58 74,554 0 19.9 1.21 34.81 39.3 8.65 2.86 7.42 8.16
21:44 3 21.5 59 74,524 0 20.21 1.18 52.28 28.03 8.02 2.86 7.31 8.04
21:41 3 21.6 60 74,420 0 22.3 1.17 40.84 36.15 8.61 4.57 8.76 9.63
21:40 3 21.6 56 74,357 0 23.75 1.22 60.16 31.65 8.35 3.71 7.56 8.32
21:39 3 21.6 58 74,271 0 24.09 1.2 53.02 29.33 8.82 3.71 8.11 8.92
21:38 3 21.7 58 74,206 0 25.36 1.19 64.28 33.65 8.91 4.57 8.89 9.78
21:37 3 21.7 59 74,122 0 21.19 1.16 45.79 33.43 8.81 2.86 7.32 8.05
21:36 3 21.7 59 74,060 0 23.12 1.18 55.35 31.89 8.87 3.71 8.09 8.89
21:35 3 21.8 57 73,990 0 21.66 1.19 54.33 29.77 8.9 3.71 8.19 9.01
21:34 3 21.8 59 73,925 0 22.4 1.16 52.53 29.37 8.41 4.57 8.11 8.92
21:33 3 21.8 58 73,837 0 24.36 1.18 44.73 34.13 9.21 2.86 7.42 8.16
21:32 3 21.8 59 73,726 0 25.07 1.16 56.69 32.12 9.08 3.71 8.84 9.73
21:31 3 21.9 59 73,577 0 25.1 1.13 68.18 31.64 8.92 2.86 7.35 8.08
21:30 3 22 58 73,449 0 24.75 1.15 45.03 36.3 9.57 2.86 7.42 8.16
21:28 3 22 58 73,147 0 27.69 1.14 67.81 30.37 9.41 2.86 7.42 8.16
21:27 3 22 58 72,943 0 26.89 1.14 53.33 32.44 9.63 4.57 8.89 9.78
21:26 3 22.1 58 72,803 0 28.56 1.13 64.47 37.41 10.01 2 6.65 7.31
21:25 3 22.1 57 72,656 0 25.44 1.16 66.65 25.88 9.29 2.86 7.47 8.22